This demonstration page uses our WeatherBlox Daily Observations layout. Learn more.

Left ArrowRight Arrow

38.20091, -84.87328

Hourly Observations for October 7, 2021

Temp ( °F °C ) Dew Point ( °F °C ) Humidity (%) Winds ( mph kmh ) Pressure ( in mb ) Visibility ( mi km ) Precip ( " mm )
12:53 am 00:53 Cloudy with Nearby Thunderstorms 65 18.3 64 17.8 97 97 E 3 6 30.15 1021 6 10 0.26 6.60
1:02 am 01:02 Cloudy with Rain 66 18.9 64 17.8 93 93 ENE 3 6 30.13 1020 7 11 0.02 0.51
1:53 am 01:53 Cloudy with Light Rain 64 17.8 63 17.2 96 96 E 9 15 30.13 1020 10 16 0.04 1.02
2:32 am 02:32 Mostly Cloudy 64 17.8 63 17.2 96 96 SE 5 7 30.12 1020 10 16 0.01 0.25
2:53 am 02:53 Mostly Cloudy 64 17.8 62 16.7 93 93 SSW 6 9 30.12 1020 10 16 0.01 0.25
3:53 am 03:53 Clear 63 17.2 62 16.7 97 97 S 3 6 30.13 1020 10 16 N/A
4:53 am 04:53 Clear 62 16.7 61 16.1 96 96 N N/A 30.13 1020 10 16 N/A
5:53 am 05:53 Mostly Cloudy 63 17.2 62 16.7 97 97 ENE 5 7 30.12 1020 10 16 0.01 0.25
6:53 am 06:53 Clear 62 16.7 61 16.1 96 96 E 7 11 30.13 1020 10 16 N/A
7:29 am 07:29 Partly Cloudy 62 16.7 61 16.1 96 96 ESE 5 7 30.14 1021 10 16 N/A
7:44 am 07:44 Mostly Cloudy 62 16.7 61 16.1 96 96 E 5 7 30.15 1021 10 16 N/A
7:53 am 07:53 Cloudy 62 16.7 61 16.1 96 96 ESE 5 7 30.15 1021 10 16 N/A
8:16 am 08:16 Mostly Cloudy 62 16.7 61 16.1 96 96 N N/A 30.16 1021 10 16 N/A
8:53 am 08:53 Mostly Cloudy 63 17.2 62 16.7 97 97 E 3 6 30.15 1021 10 16 N/A
9:53 am 09:53 Cloudy 66 18.9 63 17.2 90 90 N N/A 30.16 1021 10 16 N/A
10:00 am 10:00 Cloudy 66 18.9 63 17.2 90 90 N N/A 30.15 1021 10 16 N/A
10:53 am 10:53 Cloudy 68 20 63 17.2 84 84 N N/A 30.15 1021 10 16 N/A
11:53 am 11:53 Mostly Sunny 74 23.3 65 18.3 74 74 N N/A 30.14 1021 10 16 N/A
12:53 pm 12:53 Mostly Sunny 77 25 67 19.4 71 71 VRB 5 7 30.14 1021 10 16 N/A
1:14 pm 13:14 Mostly Cloudy 76 24.4 66 18.9 72 72 N N/A 30.12 1020 10 16 N/A
1:53 pm 13:53 Cloudy 76 24.4 66 18.9 72 72 SSE 6 9 30.11 1020 10 16 N/A
2:02 pm 14:02 Cloudy 76 24.4 66 18.9 72 72 SSE 6 9 30.10 1019 10 16 N/A
2:09 pm 14:09 Cloudy 76 24.4 66 18.9 72 72 S 5 7 30.10 1019 10 16 N/A
2:53 pm 14:53 Cloudy 76 24.4 66 18.9 72 72 N N/A 30.09 1019 10 16 N/A
3:07 pm 15:07 Cloudy 77 25 65 18.3 66 66 N N/A 30.07 1018 10 16 N/A
3:45 pm 15:45 Cloudy 78 25.6 66 18.9 67 67 ENE 5 7 30.06 1018 10 16 N/A
3:53 pm 15:53 Cloudy 77 25 67 19.4 71 71 SE 6 9 30.07 1018 10 16 N/A
4:53 pm 16:53 Cloudy with Light Rain 77 25 68 20 74 74 E 3 6 30.05 1018 7 11 0.00 0.00
5:53 pm 17:53 Mostly Cloudy with Nearby Thunderstorms 76 24.4 68 20 77 77 N N/A 30.04 1017 10 16 0.00 0.00
6:02 pm 18:02 Mostly Cloudy 76 24.4 67 19.4 74 74 N N/A 30.02 1017 10 16 N/A
6:53 pm 18:53 Cloudy 75 23.9 67 19.4 76 76 E 5 7 30.04 1017 10 16 N/A
7:53 pm 19:53 Cloudy 72 22.2 68 20 87 87 N N/A 30.05 1018 10 16 N/A
8:53 pm 20:53 Mostly Cloudy 70 21.1 67 19.4 90 90 SE 3 6 30.06 1018 10 16 N/A
9:53 pm 21:53 Cloudy 70 21.1 67 19.4 90 90 N N/A 30.05 1018 10 16 N/A
10:53 pm 22:53 Cloudy 69 20.6 67 19.4 93 93 N N/A 30.05 1018 10 16 N/A
11:53 pm 23:53 Cloudy 68 20 67 19.4 96 96 ESE 3 6 30.06 1018 10 16 N/A

Powered by AerisWeather